CZ-3C DEB, 40175

Orbit data source: Space-Track

CZ-3C DEB, 40175 is space debris in HEO originally from a launch on Sun, 31 Oct 2010 UTC launched from the Xichang Space Center, China (XSC). Debris objects in space refer to the collection of defunct objects orbiting the Earth. Examples of debris include non-operational satellites, rocket bodies, and fragments generated from explosions, collisions, or faulty payload assembly.

Loading next visibility...
Identifier
40175, 2010-057AD
Orbit
HEO
Last TLE update
9 months ago
Origin
Manufacturer
CALT
Mission
Spacecraft
Bus & Motor
Unknown
Mass
Unknown
Launch date (UTC)
2010-10-31 (15 years ago)
Launch vehicle
Unknown
Launch site
Xichang Space Center, China (XSC)
Object type
Payload
Rocket body
Debris
Shape & HBR
Unknown
Radar Cross Section
Medium (>0.1 m² and <1 m²)

Expand to show TLE details & history

TLE from 9 months ago
0 CZ-3C DEB
1 40175U 10057AD  24214.99491461  .00001858  00000-0  83034-2 0  9998
2 40175  19.5903  84.6819 7076990 217.1463  62.1799  2.43332064 93715
Epoch: 2024-08-01T23:52Z
Definitive object data (Epoch: 2024-08-01T23:52:40.622Z)
Latitude
0.00008°
Longitude
135.53148°
Altitude
20,373.486 km
Speed
3.568 km/s
True Right ascension
05h 39m 06s
True Declination
0° 00' 00"
Sunlit
Object was in daylight at TLE epoch
Visualization TLE readout
Latitude
-14.66265°
Longitude
-22.55208°
Altitude
9,127.633 km
Speed
5.855 km/s
Apparent Right ascension
20h 22m 59s
Apparent Declination
-29° 32' 07"
Sunlit
Object is in daylight
Visualization observer readout
Local Sidereal Time
14:27:02
Azimuth
114.034° SE
Elevation
-17.731°
Doppler factor
1
Orbital elements
Apogee altitude
33,502.607 km
Perigee altitude
448.114 km
Semi-major axis
23,353.497 km
Eccentricity
0.707699
Inclination
19.5903°
RAAN
84.6819°
Arg. of periapsis
217.1463°
True anomaly
142.87065°
Mean anomaly
62.1799°
Eccentric anomaly
101.86216°
Mean motion
0.60816 °/min
BSTAR
0.0083034
Orbital period
591.95 mins
Loading maneuver chart data...
Loading SW <> Apogee altitude chart data...
Loading historical data...
Loading historical data...
Loading historical data...
Loading historical data...
Loading historical data...
Loading historical data...
Loading historical data...

CZ-3C DEB Visibility forecast

Observer location: undefined°, undefined°

Span
Click to sort rows by Start time (UTC) header in descending order
Start Az.
Max El. time (UTC)
Max El. Az.
Max El.
End time (UTC)
End Az.
191 mins2025-05-10 03:07:13.376Z240.372° WSW2025-05-10 04:05:13.376Z197.977° SSW25.272°2025-05-10 06:18:13.376Z198.117° SSW
|